Temp
68 71 73 74 74 74 73 73 74 74 75 74 74 74 74 73 74 74 74 75 75 75 75 75 74 74 73 73 72 72 72 72 72 73 74 75 77 77 77 76 76 77 76
70 71 73 74 74 74 74 74 73 74 74 74 73 73 73 73 73 73 73 73 73 74 74 73 73 72 72 71 70 71 71 71 70 71 72 74 75 76 78 77 76 76 76
69 71 73 73 74 74 74 74 74 74 73 73 73 72 72 71 71 71 71 71 72 72 72 72 71 71 70 69 69 69 69 69 69 70 71 70 72 77 78 77 75 75 76
70 70 72 72 72 73 73 73 73 73 72 72 72 71 71 71 70 70 70 70 70 71 71 71 70 69 68 68 68 68 68 68 68 69 68 70 72 76 78 77 76 76 76
69 71 71 70 71 72 72 72 71 71 71 71 71 71 70 70 69 69 68 69 69 69 69 69 69 68 67 66 67 67 67 67 67 66 65 68 69 76 77 77 77 76 75
68 69 69 69 70 71 71 71 70 70 69 69 70 70 69 69 68 68 67 68 68 68 68 68 67 67 67 66 67 67 67 67 67 60 61 65 69 73 76 76 76 75 74
66 68 68 69 69 70 70 69 69 69 68 68 68 69 68 68 68 67 66 66 67 67 67 68 68 68 67 67 68 67 67 66 63 59 59 60 62 72 76 75 75 75 74
64 65 66 69 69 68 68 68 67 67 67 68 68 68 68 67 67 67 66 66 67 67 67 68 68 68 68 68 67 67 66 67 63 58 60 60 67 74 75 72 71 71 72
62 62 64 63 66 66 66 66 66 66 67 67 67 67 67 67 67 67 66 67 67 68 68 68 68 67 67 66 66 66 65 66 57 59 63 62 70 73 73 72 71 70 70
58 58 61 61 59 57 60 65 65 66 66 66 66 67 66 66 66 66 66 67 68 68 67 67 66 66 66 65 65 65 65 63 56 58 59 62 69 71 72 71 71 70 70
58 56 55 55 55 54 56 62 65 66 66 66 66 66 61 55 56 58 64 67 66 66 65 65 65 64 63 62 63 64 63 56 56 56 57 66 68 70 71 71 70 70 70
55 54 55 53 53 54 62 56 54 58 53 53 53 54 53 53 55 59 62 64 64 62 63 62 62 61 58 53 53 58 53 55 54 55 57 65 67 69 70 70 70 69 69
57 57 56 55 53 53 55 51 51 51 50 50 51 51 51 51 51 50 50 50 50 57 51 53 52 52 51 51 52 52 53 53 51 54 57 64 66 68 69 69 69 69 69
56 57 57 55 54 53 52 51 50 50 49 48 48 50 48 47 48 48 48 48 48 47 48 48 48 49 49 51 51 51 52 51 52 53 53 62 64 67 69 69 69 69 69
57 57 57 55 54 54 52 50 50 49 48 47 48 49 48 47 47 47 47 47 47 47 47 46 46 47 47 49 50 50 51 51 51 52 51 59 62 66 67 67 67 68 68
59 57 56 55 53 53 52 51 50 48 47 47 47 48 48 46 46 46 46 46 45 45 45 44 44 44 44 46 48 48 49 49 50 51 52 52 60 62 63 65 65 66 66
59 58 55 53 53 53 52 51 51 51 49 47 47 47 48 47 46 45 45 44 43 44 44 44 43 43 44 47 45 47 48 48 50 52 52 53 53 58 60 61 63 63 63
58 57 57 59 52 51 51 51 52 50 48 47 46 47 48 48 47 45 44 43 43 44 44 43 42 43 43 42 42 43 44 47 50 51 50 49 50 51 55 58 59 59 59
58 57 55 54 52 51 51 50 50 50 49 48 47 45 46 46 46 43 42 43 44 44 42 42 41 40 39 41 43 42 42 44 46 50 47 46 47 48 50 54 55 54 55
59 58 56 55 52 51 52 51 50 50 49 47 44 45 45 45 46 44 42 42 42 41 40 40 39 40 39 37 44 42 41 42 44 43 43 45 44 45 47 50 48 50 52
58 56 55 53 51 52 51 50 50 47 46 44 46 45 45 44 44 42 41 41 41 40 39 40 38 37 38 39 35 36 39 41 41 40 42 41 41 43 46 49 48 48 49
56 56 55 54 53 54 53 52 48 47 44 45 44 44 44 43 43 43 41 40 40 39 38 37 36 35 35 36 32 32 30 36 38 40 40 41 39 41 47 49 48 47 46
55 55 55 55 54 53 54 50 47 45 44 42 42 41 41 43 42 41 40 39 38 38 36 36 36 35 33 35 35 32 29 27 30 36 35 37 38 39 44 45 44 44 43
55 56 56 56 55 54 53 51 49 46 43 41 40 39 40 42 41 41 40 38 37 37 36 37 38 34 34 31 34 38 34 33 27 26 32 33 37 39 41 41 40 42 43
56 55 56 56 55 52 51 51 49 45 42 43 40 39 39 39 40 40 39 37 36 36 36 36 35 35 34 32 32 31 32 31 30 28 25 29 34 35 38 39 38 40 41
56 55 55 54 53 50 50 50 49 44 42 41 39 38 37 37 37 38 39 36 36 36 36 35 35 34 33 32 32 32 31 29 29 28 25 27 27 31 35 39 37 39 39
MSLP
1013.87 1013.82 1013.81 1013.78 1013.84 1013.93 1013.93 1013.96 1014.01 1014.23 1014.27 1014.45 1014.57 1014.61 1014.82 1015.02 1015.23 1015.40 1015.54 1015.73 1015.88 1015.84 1015.87 1015.90 1016.04 1016.28 1016.37 1016.38 1016.37 1016.34 1016.20 1016.01 1015.93 1015.70 1015.48 1015.46 1015.28 1015.10 1014.88 1014.73 1014.57 1014.58 1014.74
1013.44 1013.78 1013.76 1013.80 1013.90 1013.88 1014.00 1014.14 1014.33 1014.45 1014.61 1014.69 1014.86 1015.09 1015.22 1015.41 1015.69 1015.80 1015.91 1016.05 1016.19 1016.12 1016.14 1016.24 1016.32 1016.40 1016.59 1016.67 1016.66 1016.60 1016.46 1016.27 1016.06 1015.87 1015.71 1015.36 1015.15 1015.02 1014.63 1014.40 1014.43 1014.62 1014.56
1013.49 1013.86 1013.92 1014.08 1014.14 1014.16 1014.25 1014.35 1014.48 1014.64 1014.91 1015.10 1015.41 1015.59 1015.72 1015.93 1016.19 1016.38 1016.45 1016.50 1016.46 1016.46 1016.51 1016.59 1016.59 1016.75 1016.82 1016.85 1016.90 1016.77 1016.61 1016.42 1016.16 1015.93 1015.67 1015.36 1015.10 1014.81 1014.49 1014.18 1014.17 1014.50 1014.44
1013.55 1013.93 1014.23 1014.38 1014.47 1014.51 1014.54 1014.67 1014.92 1015.07 1015.30 1015.60 1015.88 1015.99 1016.30 1016.49 1016.63 1016.80 1016.81 1016.81 1016.91 1016.95 1017.01 1017.06 1017.12 1017.24 1017.27 1017.26 1017.27 1017.10 1016.88 1016.62 1016.32 1016.11 1015.87 1015.52 1015.21 1014.78 1014.42 1014.27 1014.27 1014.28 1014.36
1013.93 1014.09 1014.36 1014.72 1014.88 1014.88 1014.87 1015.03 1015.27 1015.48 1015.71 1015.99 1016.25 1016.42 1016.61 1016.89 1016.95 1017.12 1017.18 1017.24 1017.25 1017.33 1017.40 1017.54 1017.59 1017.64 1017.67 1017.62 1017.47 1017.35 1017.17 1016.90 1016.71 1016.46 1016.10 1015.68 1015.44 1015.01 1014.70 1014.26 1014.24 1014.21 1014.27
1014.15 1014.36 1014.60 1015.02 1015.13 1015.19 1015.23 1015.36 1015.50 1015.72 1016.04 1016.30 1016.50 1016.72 1016.99 1017.24 1017.31 1017.40 1017.52 1017.54 1017.65 1017.63 1017.66 1017.83 1017.93 1017.94 1017.92 1017.79 1017.59 1017.42 1017.18 1016.92 1016.74 1016.67 1016.34 1015.92 1015.52 1015.38 1014.90 1014.51 1014.25 1014.14 1014.13
1014.42 1014.51 1015.01 1015.23 1015.19 1015.32 1015.50 1015.60 1015.84 1016.01 1016.31 1016.57 1017.02 1017.08 1017.29 1017.42 1017.51 1017.61 1017.67 1017.74 1017.77 1017.85 1017.96 1018.03 1018.07 1017.99 1017.91 1017.88 1017.67 1017.48 1017.26 1017.08 1016.91 1016.71 1016.44 1016.10 1015.77 1015.22 1014.77 1014.39 1013.95 1013.88 1014.03
1014.54 1014.88 1015.32 1015.35 1015.26 1015.55 1015.84 1016.07 1016.36 1016.47 1016.67 1016.87 1017.22 1017.28 1017.32 1017.48 1017.65 1017.69 1017.72 1017.77 1017.83 1017.92 1018.01 1018.08 1018.20 1018.14 1018.06 1017.91 1017.79 1017.53 1017.34 1017.07 1017.06 1016.86 1016.50 1016.20 1015.70 1015.11 1014.88 1014.74 1014.50 1014.29 1014.29
1014.82 1015.12 1015.37 1015.36 1015.46 1015.71 1015.87 1016.12 1016.40 1016.60 1016.80 1016.99 1017.16 1017.20 1017.37 1017.50 1017.66 1017.82 1017.79 1017.85 1017.87 1018.02 1018.13 1018.20 1018.17 1018.18 1018.14 1018.00 1017.89 1017.74 1017.56 1017.36 1017.27 1017.04 1016.68 1016.41 1015.87 1015.39 1015.18 1015.06 1014.89 1014.75 1014.64
1015.37 1015.58 1015.58 1015.61 1015.85 1016.17 1016.25 1016.29 1016.36 1016.70 1016.89 1017.09 1017.25 1017.31 1017.51 1017.72 1017.86 1018.00 1018.06 1018.01 1018.05 1018.09 1018.25 1018.28 1018.31 1018.31 1018.21 1018.11 1018.01 1017.86 1017.62 1017.46 1017.39 1017.18 1016.91 1016.62 1016.22 1015.73 1015.43 1015.30 1015.19 1015.05 1014.98
1015.59 1015.61 1015.80 1015.98 1016.12 1016.28 1016.46 1016.62 1016.81 1016.84 1017.06 1017.35 1017.36 1017.59 1017.89 1018.16 1018.16 1018.27 1018.31 1018.23 1018.31 1018.36 1018.33 1018.34 1018.34 1018.41 1018.47 1018.39 1018.05 1017.80 1017.68 1017.62 1017.57 1017.35 1017.01 1016.66 1016.32 1015.99 1015.74 1015.59 1015.43 1015.23 1015.16
1015.88 1016.33 1016.22 1016.02 1016.13 1016.34 1016.37 1016.78 1017.19 1017.30 1017.73 1017.88 1017.95 1018.01 1018.22 1018.48 1018.42 1018.54 1018.62 1018.76 1018.78 1018.86 1018.77 1018.81 1018.69 1018.62 1018.58 1018.55 1018.28 1017.95 1017.84 1017.60 1017.55 1017.43 1017.10 1016.79 1016.38 1016.06 1015.77 1015.58 1015.57 1015.36 1015.23
1015.44 1015.98 1016.08 1016.32 1016.40 1016.39 1016.43 1017.03 1017.43 1017.68 1018.01 1018.18 1018.28 1018.39 1018.64 1018.82 1018.85 1019.14 1019.36 1019.52 1019.46 1019.40 1019.52 1019.38 1019.22 1019.12 1019.01 1018.80 1018.52 1018.27 1017.94 1017.70 1017.53 1017.31 1017.12 1016.76 1016.41 1016.08 1015.79 1015.61 1015.41 1015.27 1015.08
1014.62 1015.26 1015.74 1015.79 1016.11 1016.54 1016.85 1017.17 1017.67 1018.04 1018.40 1018.76 1018.81 1018.78 1018.98 1019.32 1019.51 1019.79 1019.93 1019.95 1019.90 1019.99 1019.98 1019.93 1019.82 1019.58 1019.37 1019.05 1018.82 1018.57 1018.31 1018.08 1017.65 1017.31 1017.09 1016.79 1016.43 1016.08 1015.65 1015.38 1015.22 1015.16 1014.97
1013.34 1013.99 1014.43 1015.00 1015.38 1015.71 1016.43 1017.21 1017.88 1018.28 1018.66 1019.09 1019.23 1019.24 1019.30 1019.67 1019.98 1020.14 1020.33 1020.25 1020.38 1020.42 1020.45 1020.42 1020.33 1020.17 1019.95 1019.61 1019.21 1018.85 1018.52 1018.13 1017.74 1017.42 1017.25 1016.78 1016.30 1016.01 1015.82 1015.73 1015.63 1015.45 1015.14
1012.87 1013.72 1014.38 1014.87 1015.19 1015.70 1016.37 1017.07 1017.89 1018.34 1018.82 1019.20 1019.62 1019.76 1019.76 1020.04 1020.30 1020.48 1020.66 1020.78 1020.84 1020.84 1020.74 1020.67 1020.53 1020.28 1020.12 1019.91 1019.58 1019.32 1019.05 1018.53 1018.03 1017.63 1017.38 1017.19 1016.90 1016.78 1016.51 1016.14 1015.94 1015.72 1015.38
1012.40 1013.18 1014.21 1014.89 1015.43 1015.78 1016.36 1016.94 1017.82 1018.32 1018.87 1019.33 1019.77 1020.09 1020.23 1020.27 1020.48 1020.66 1020.89 1020.94 1020.95 1020.75 1020.63 1020.64 1020.55 1020.42 1020.16 1019.77 1019.58 1019.33 1019.04 1018.90 1018.68 1018.42 1018.28 1017.94 1017.64 1017.27 1017.08 1016.75 1016.06 1016.03 1015.81
1011.88 1012.78 1013.73 1014.53 1015.23 1015.88 1016.13 1016.67 1017.55 1018.45 1018.97 1019.56 1019.91 1020.21 1020.34 1020.38 1020.65 1021.02 1021.15 1021.04 1021.02 1020.90 1020.97 1020.91 1020.82 1020.53 1020.47 1020.42 1020.23 1020.07 1019.80 1019.41 1019.16 1019.20 1019.10 1018.92 1018.60 1018.25 1017.84 1017.50 1016.95 1016.60 1016.40
1011.29 1012.30 1013.25 1013.96 1014.83 1015.69 1016.39 1016.81 1017.32 1018.39 1019.13 1019.78 1020.04 1020.38 1020.63 1020.84 1020.89 1021.02 1021.08 1021.04 1020.91 1021.02 1021.14 1021.13 1021.05 1021.06 1021.01 1020.81 1020.50 1020.44 1020.41 1020.27 1020.25 1020.00 1019.94 1019.72 1019.49 1018.98 1018.59 1018.17 1017.82 1017.47 1017.16
1010.90 1011.88 1012.77 1013.70 1014.61 1015.42 1016.19 1016.77 1017.83 1018.33 1019.00 1019.95 1020.57 1020.86 1021.14 1021.26 1021.15 1021.21 1021.07 1021.02 1020.97 1021.17 1021.38 1021.22 1021.36 1021.28 1021.21 1020.98 1020.73 1020.74 1020.54 1020.42 1020.45 1020.59 1020.59 1020.33 1020.07 1019.56 1019.26 1018.97 1018.77 1018.24 1017.90
1010.63 1011.43 1012.15 1013.13 1014.22 1015.00 1016.02 1016.97 1017.92 1018.78 1019.49 1020.24 1020.68 1021.09 1021.28 1021.26 1021.34 1021.23 1021.07 1021.06 1021.21 1021.54 1021.53 1021.59 1021.62 1021.74 1021.47 1021.17 1021.13 1021.13 1021.06 1020.95 1021.05 1021.30 1021.08 1020.67 1020.52 1020.14 1019.65 1019.46 1019.34 1019.01 1018.64
1009.75 1011.00 1011.98 1012.83 1013.84 1014.55 1015.39 1016.36 1017.30 1018.49 1019.50 1020.14 1020.71 1021.10 1021.25 1021.33 1021.35 1021.30 1021.27 1021.48 1021.46 1021.74 1021.96 1021.96 1022.07 1022.16 1022.24 1021.94 1021.97 1022.17 1022.02 1021.46 1021.18 1021.63 1021.49 1021.43 1021.07 1020.76 1020.08 1020.06 1020.05 1019.68 1019.36
1009.18 1010.26 1011.34 1012.17 1012.97 1014.01 1014.82 1015.96 1017.41 1018.56 1019.74 1020.56 1020.91 1021.09 1021.23 1021.29 1021.39 1021.48 1021.64 1021.72 1021.78 1021.71 1022.08 1022.25 1022.48 1022.74 1022.97 1022.71 1022.43 1022.33 1022.90 1023.32 1022.94 1021.88 1021.98 1021.73 1021.52 1021.31 1020.83 1020.81 1020.58 1020.32 1020.02
1008.81 1010.12 1010.93 1011.67 1012.49 1013.72 1014.62 1015.82 1016.90 1017.82 1019.14 1020.19 1020.77 1021.12 1021.47 1021.40 1021.57 1021.81 1021.86 1021.86 1021.67 1021.79 1022.07 1022.26 1022.51 1022.76 1023.01 1023.33 1022.94 1022.93 1023.14 1023.57 1023.65 1023.16 1022.51 1022.20 1022.10 1021.95 1021.68 1021.26 1020.98 1020.61 1020.28
1007.78 1008.91 1010.50 1011.36 1012.10 1013.18 1014.05 1014.95 1015.99 1017.20 1018.30 1019.31 1020.34 1020.98 1021.24 1021.50 1021.66 1021.80 1021.78 1021.94 1022.00 1022.17 1022.11 1022.29 1022.60 1022.94 1023.15 1023.10 1023.36 1023.51 1023.80 1024.03 1023.65 1023.85 1023.76 1023.09 1022.58 1022.30 1022.14 1021.65 1021.34 1021.05 1020.77
1007.67 1008.82 1010.21 1011.43 1012.15 1012.87 1013.89 1014.70 1015.40 1016.38 1017.75 1019.11 1020.32 1021.10 1021.55 1021.81 1021.94 1021.89 1022.08 1022.22 1022.16 1022.17 1022.29 1022.58 1022.97 1023.50 1023.33 1023.68 1023.80 1023.78 1024.36 1024.65 1024.40 1024.00 1024.12 1023.81 1023.53 1022.75 1022.27 1021.92 1021.83 1021.80 1021.44
Wind_Speed
4 5 10 13 15 14 15 16 17 15 16 17 17 18 17 17 17 17 16 16 15 14 14 14 14 13 13 13 13 12 12 12 13 12 11 12 13 13 13 10 6 3 3
9 5 9 12 12 15 15 17 17 16 16 16 17 17 17 17 16 16 16 16 15 15 15 15 15 14 14 14 14 13 13 12 13 14 15 14 14 14 14 12 9 4 3
10 7 7 12 11 12 15 16 16 17 16 17 17 17 17 17 17 17 17 16 16 15 15 14 14 14 14 14 13 13 14 14 14 14 16 7 7 14 15 17 6 6 5
10 8 7 14 13 15 17 17 16 17 17 17 17 17 17 17 17 16 16 16 15 15 15 14 14 14 14 13 13 12 13 14 15 16 7 8 8 14 15 5 5 6 6
9 9 12 14 14 16 17 17 17 17 17 17 17 17 16 16 16 16 16 16 15 15 15 14 14 14 13 13 13 13 13 13 13 11 7 8 7 10 17 11 6 6 6
10 11 14 13 15 17 18 18 18 18 17 17 16 16 16 15 16 15 15 15 14 14 14 14 13 13 13 13 12 13 13 14 13 6 7 10 9 14 17 15 10 7 6
10 10 10 14 16 17 18 18 18 18 17 17 15 15 16 16 15 15 15 15 15 14 14 14 13 13 13 13 14 13 14 15 8 7 6 6 7 14 15 16 10 11 7
11 9 10 15 17 17 17 17 16 16 16 16 15 16 16 15 15 14 14 14 14 12 12 12 12 12 13 14 16 16 13 13 9 7 7 5 10 13 15 17 19 18 11
8 8 7 8 14 18 18 17 16 16 16 16 15 15 14 13 13 13 13 13 13 11 12 12 13 13 14 14 14 14 13 14 6 5 7 5 19 16 16 16 17 17 16
6 6 7 7 6 6 7 17 17 16 16 14 13 13 11 10 10 12 10 12 13 13 12 13 13 15 15 14 14 13 12 11 6 5 5 5 18 16 15 15 16 16 15
7 8 7 6 6 6 6 10 13 15 13 10 11 10 8 4 5 6 8 10 13 13 14 14 14 15 14 13 14 14 12 3 4 3 3 14 16 15 14 14 14 14 14
9 6 6 7 8 7 6 6 5 7 5 5 5 6 4 5 5 6 9 13 14 13 14 14 14 14 11 5 5 10 4 5 4 4 3 16 16 15 14 14 14 13 13
11 8 9 7 6 7 6 4 3 3 3 4 6 5 5 5 5 4 4 4 4 10 4 6 7 5 7 5 5 4 5 5 3 3 6 15 16 14 14 14 13 13 13
12 11 11 9 8 6 4 4 4 4 4 4 5 6 5 4 5 5 4 4 4 4 5 5 4 5 6 7 7 7 6 5 4 3 6 15 16 16 13 11 12 14 14
15 14 15 11 10 7 7 5 5 5 4 5 5 6 5 5 5 4 4 4 4 4 4 5 5 5 6 6 6 6 6 6 7 4 4 15 13 12 13 14 14 16 16
16 13 10 9 8 8 8 8 6 5 5 5 4 5 6 4 4 4 4 4 4 3 4 4 4 4 4 4 5 6 7 7 7 6 4 6 19 18 17 16 16 17 17
14 14 10 8 8 9 9 9 7 6 6 5 5 6 6 5 5 5 4 3 3 3 5 5 5 3 4 5 5 5 5 7 7 10 9 8 9 17 19 21 17 18 20
17 17 13 10 9 8 9 8 7 6 6 5 5 4 5 5 5 4 3 4 4 4 4 3 3 4 5 5 5 5 5 6 7 10 9 8 8 8 13 19 20 20 20
20 19 14 13 12 10 8 7 9 9 6 5 4 4 5 5 5 5 4 4 4 4 4 4 4 3 4 6 5 4 4 6 7 9 10 11 10 9 7 14 19 22 22
19 18 17 13 13 11 8 9 7 8 6 5 4 4 5 4 5 4 4 5 5 4 4 4 5 4 3 3 3 3 3 4 5 7 7 9 9 9 8 8 9 10 21
19 19 19 17 14 12 9 9 8 7 6 5 4 6 5 5 5 5 4 5 4 4 4 4 2 4 7 6 3 4 2 4 6 5 6 7 10 10 8 10 8 8 9
22 20 18 17 16 13 10 8 5 7 4 5 4 5 5 5 5 5 5 4 5 4 5 5 5 3 4 5 3 1 4 4 4 5 6 8 10 7 8 11 11 11 10
22 21 19 19 19 14 14 9 7 7 6 3 3 3 3 5 5 6 5 5 5 4 4 5 4 5 3 4 6 4 3 2 4 2 5 6 9 6 5 8 9 10 9
20 18 19 20 17 14 14 11 15 8 8 4 4 3 4 5 6 5 5 5 6 4 5 4 4 3 3 3 3 5 5 2 1 5 4 4 6 7 7 6 5 8 9
21 20 17 18 17 15 13 15 13 11 5 7 5 7 5 5 6 5 6 6 6 4 5 6 5 5 2 3 3 2 4 2 2 2 3 5 3 3 4 4 5 6 9
19 19 16 17 15 15 14 16 17 15 13 11 8 7 4 3 4 5 5 5 5 5 5 5 5 6 6 5 4 5 4 2 2 2 1 3 3 3 3 5 6 7 8
Wind_Direction
131 137 147 132 120 112 110 101 101 97 94 90 86 84 83 81 81 80 76 69 68 64 58 52 48 41 34 24 19 14 6 360 353 346 337 323 317 318 314 295 271 259 271
120 124 126 110 114 110 106 108 105 98 92 92 88 85 85 82 78 76 75 71 63 58 51 46 38 32 27 22 15 10 6 359 352 345 335 327 322 321 314 295 245 240 235
113 114 107 107 108 106 100 92 94 95 93 91 88 83 79 79 77 74 70 67 61 55 49 42 36 27 21 18 10 4 359 353 351 344 331 320 322 326 323 317 197 225 224
116 111 112 99 101 101 98 97 97 97 95 93 92 88 82 80 77 73 68 63 58 53 46 37 29 21 16 10 3 358 352 349 344 340 334 319 327 326 326 296 212 234 237
116 117 108 101 105 106 105 104 104 104 98 94 91 87 83 79 78 71 67 62 58 52 46 36 27 17 10 3 360 356 350 346 339 337 328 324 329 326 336 306 247 248 237
114 111 109 122 125 123 119 115 109 105 103 100 98 94 90 83 77 73 69 63 58 53 47 35 27 19 11 6 5 358 351 349 349 337 327 316 326 334 330 321 275 258 274
120 114 121 134 127 123 119 116 115 114 111 106 99 99 95 85 78 74 69 63 57 54 47 39 32 27 23 13 5 352 343 352 353 334 321 317 319 328 358 358 309 250 235
125 125 141 133 126 123 119 116 115 113 111 107 110 105 100 96 84 78 78 72 64 62 48 39 33 28 28 23 21 17 2 9 3 338 328 318 332 0 10 15 25 30 13
130 137 134 131 131 130 127 125 122 122 121 120 121 112 109 105 90 84 84 69 59 59 43 38 29 41 24 19 18 15 20 8 5 347 350 351 10 6 10 13 15 18 17
120 115 125 120 112 111 124 130 128 129 127 128 127 123 114 114 102 89 80 63 54 55 41 35 37 24 21 15 8 2 7 4 357 352 345 335 355 357 4 7 7 6 3
154 152 144 134 128 132 130 138 128 126 116 98 116 127 88 89 89 88 88 66 58 47 38 33 31 20 14 5 3 5 3 347 353 347 339 348 349 345 347 351 350 349 347
166 171 159 153 154 153 146 123 107 99 88 78 78 90 89 71 74 73 75 60 51 45 33 31 23 19 12 356 352 0 349 351 357 343 348 347 346 346 344 343 341 338 336
170 169 172 165 167 163 139 126 103 99 98 74 68 77 70 66 60 58 55 42 36 34 25 27 15 12 2 357 352 347 355 357 348 342 346 347 347 340 344 341 341 341 337
167 172 180 171 171 173 134 130 120 106 89 70 59 73 73 61 54 57 65 46 45 25 30 25 16 1 2 354 353 351 352 344 336 334 337 342 349 346 352 351 358 359 352
173 169 176 166 174 160 144 130 128 110 96 95 67 60 71 64 62 75 57 48 37 27 29 26 13 4 356 349 347 352 343 339 337 334 336 355 16 31 30 21 17 1 351
175 173 164 162 151 142 136 131 127 114 111 89 74 69 65 69 77 74 54 45 38 43 38 36 14 6 356 348 345 347 341 335 333 349 2 15 30 33 31 29 22 8 0
173 161 158 141 140 136 132 125 125 124 111 103 92 71 69 66 85 94 88 67 68 53 49 28 6 2 7 358 355 352 352 349 357 33 25 22 15 17 19 14 25 26 16
162 162 156 144 141 134 133 127 124 119 111 107 99 93 80 76 104 95 82 61 72 53 44 32 13 13 10 1 345 360 359 22 42 49 36 22 11 7 10 19 30 37 27
163 159 154 146 145 139 127 118 118 119 109 108 103 93 81 82 102 102 93 84 79 65 44 31 24 27 9 359 349 17 23 36 36 47 36 20 9 10 7 13 26 32 26
159 159 151 149 143 139 129 118 111 117 116 110 102 92 90 89 90 96 79 75 78 70 48 43 43 9 2 336 15 36 71 58 53 46 35 25 8 7 1 17 25 18 23
160 158 157 149 150 143 140 134 127 128 117 103 104 113 110 102 99 101 89 85 79 79 71 47 49 31 16 3 52 1 357 67 56 43 33 24 7 359 358 35 31 20 8
161 162 158 153 150 151 147 143 131 137 118 118 122 120 116 113 107 97 90 88 88 81 60 51 42 30 17 8 57 98 10 338 19 41 29 17 6 351 39 43 32 19 18
167 163 161 158 159 156 151 128 113 94 96 105 129 123 131 117 104 96 96 106 95 89 75 63 61 60 46 359 30 100 40 340 330 1 13 20 4 1 27 36 29 28 14
165 160 162 163 158 155 152 142 149 148 150 154 145 139 134 116 108 106 99 97 92 92 87 87 79 79 88 35 8 40 58 127 47 330 349 349 359 9 22 8 12 12 11
162 160 160 160 158 156 155 156 158 155 140 142 134 143 141 133 122 115 107 102 93 95 97 90 73 72 84 89 74 26 47 39 57 112 303 335 355 344 341 12 353 4 9
158 155 155 159 160 153 157 164 164 151 145 146 151 147 145 138 131 115 110 106 111 93 92 82 81 67 75 68 65 60 59 38 324 43 348 290 289 301 310 20 15 21 2